TA3MHA Weather Reports


time (UTC)temp
F
wind
direction
speed
knots
gust
knots
rain 1hr
in
rain 24hr
in
rain mn
in
humidity
%
barometer
mb
20260504050500 48 105 4.3 4.3 0.00 0.00 0.00 66
20260504050000 47 36 0.0 1.7 0.00 0.00 0.00 68
20260504045500 46 309 0.9 1.7 0.00 0.00 0.00 70
20260504045000 46 146 1.7 1.7 0.00 0.00 0.00 69
20260504044500 46 261 1.7 1.7 0.00 0.00 0.00 72
20260504044000 45 304 2.6 3.5 0.00 0.00 0.00 75
20260504043500 44 211 2.6 3.5 0.00 0.00 0.00 75
20260504043000 44 210 1.7 2.6 0.00 0.00 0.00 74
20260504042500 43 264 0.9 1.7 0.00 0.00 0.00 73
20260504042000 43 229 0.0 0.9 0.00 0.00 0.00 75
20260504041500 42 210 1.7 1.7 0.00 0.00 0.00 75
20260504041000 42 197 0.9 0.9 0.00 0.00 0.00 76
20260504040500 41 289 0.9 1.7 0.00 0.00 0.00 76
20260504040000 41 148 1.7 1.7 0.00 0.00 0.00 79
20260504035500 40 242 0.9 0.9 0.00 0.00 0.00 79
20260504035000 40 257 0.0 0.0 0.00 0.00 0.00 79
20260504034500 41 229 0.0 0.9 0.00 0.00 0.00 78
20260504034000 40 1 0.9 1.7 0.00 0.00 0.00 78
20260504033500 40 139 2.6 2.6 0.00 0.00 0.00 79
20260504033000 40 159 1.7 2.6 0.00 0.00 0.00 80
20260504032500 39 141 1.7 2.6 0.00 0.00 0.00 80
20260504032000 40 205 1.7 1.7 0.00 0.00 0.00 79
20260504031500 39 176 2.6 2.6 0.00 0.00 0.00 80
20260504031000 39 167 2.6 2.6 0.00 0.00 0.00 80
20260504030500 39 354 0.9 0.9 0.00 0.00 0.00 80
20260504030000 39 179 0.9 0.9 0.00 0.00 0.00 79
20260504025500 39 266 0.0 1.7 0.00 0.00 0.00 79
20260504025000 39 190 0.0 0.9 0.00 0.00 0.00 78
20260504024500 39 233 0.9 1.7 0.00 0.00 0.00 77
20260504024000 40 224 0.0 0.9 0.00 0.00 0.00 77
20260504023500 40 210 2.6 2.6 0.00 0.00 0.00 77
20260504023000 40 246 0.0 0.9 0.00 0.00 0.00 75
20260504022500 40 149 0.0 0.9 0.00 0.00 0.00 75
20260504022000 41 152 1.7 1.7 0.00 0.00 0.00 74
20260504021500 41 199 1.7 1.7 0.00 0.00 0.00 74
20260504021000 40 132 1.7 2.6 0.00 0.00 0.00 75
20260504020500 40 168 1.7 1.7 0.00 0.00 0.00 74
20260504020000 40 153 0.0 0.9 0.00 0.00 0.00 74
20260504015500 40 206 0.9 1.7 0.00 0.00 0.00 74
20260504015000 41 268 0.0 0.9 0.00 0.00 0.00 73
20260504014500 40 119 2.6 4.3 0.00 0.00 0.00 74
20260504014000 40 154 1.7 3.5 0.00 0.00 0.00 74
20260504013500 41 160 2.6 2.6 0.00 0.00 0.00 73
20260504013000 40 104 3.5 5.2 0.00 0.00 0.00 73
20260504012500 40 185 1.7 1.7 0.00 0.00 0.00 73
20260504012000 40 94 0.9 1.7 0.00 0.00 0.00 74
20260504011500 40 165 1.7 1.7 0.00 0.00 0.00 73
20260504011000 40 229 0.0 0.0 0.00 0.00 0.00 73
20260504010500 40 122 0.0 0.9 0.00 0.00 0.00 74
20260504010000 40 164 1.7 1.7 0.00 0.00 0.00 74
20260504005500 40 151 2.6 3.5 0.00 0.00 0.00 75
20260504005000 40 133 2.6 3.5 0.00 0.00 0.00 74
20260504004500 40 113 4.3 5.2 0.00 0.00 0.00 76
20260504004000 40 115 3.5 4.3 0.00 0.00 0.00 76
20260504003500 40 138 2.6 2.6 0.00 0.00 0.00 76
20260504003000 40 136 2.6 2.6 0.00 0.00 0.00 75
20260504002500 40 116 3.5 4.3 0.00 0.00 0.00 74
20260504002000 41 124 1.7 3.5 0.00 0.00 0.00 72
20260504001500 41 111 1.7 3.5 0.00 0.00 0.00 72
20260504001000 41 15 0.0 3.5 0.00 0.00 0.00 72
20260504000500 40 263 0.0 0.9 0.00 0.00 0.00 73
20260504000000 40 8 1.7 1.7 0.00 0.00 0.00 73
20260503235500 41 225 0.9 1.7 0.00 0.00 0.00 72
20260503235000 41 102 2.6 3.5 0.00 0.00 0.00 70
20260503234500 41 296 1.7 1.7 0.00 0.00 0.00 70
20260503234000 42 39 1.7 1.7 0.00 0.00 0.00 69
20260503233500 42 309 1.7 2.6 0.00 0.00 0.00 69
20260503233000 42 115 4.3 4.3 0.00 0.00 0.00 69
20260503232500 42 359 2.6 3.5 0.00 0.00 0.00 69
20260503232000 42 7 4.3 7.0 0.00 0.00 0.00 70
20260503231500 42 11 1.7 3.5 0.00 0.00 0.00 69
20260503231000 42 93 2.6 6.1 0.00 0.00 0.00 69
20260503230500 42 138 1.7 4.3 0.00 0.00 0.00 68
20260503230000 42 232 0.0 3.5 0.00 0.00 0.00 69
20260503225500 42 105 2.6 3.5 0.00 0.00 0.00 69
20260503225000 42 101 3.5 3.5 0.00 0.00 0.00 69
20260503224500 41 8 1.7 2.6 0.00 0.00 0.00 70
20260503224000 42 20 1.7 1.7 0.00 0.00 0.00 69
20260503223500 42 352 1.7 2.6 0.00 0.00 0.00 69
20260503223000 42 93 1.7 2.6 0.00 0.00 0.00 69
20260503222500 42 1 3.5 3.5 0.00 0.00 0.00 68
20260503222000 42 0 1.7 1.7 0.00 0.00 0.00 68
20260503221500 42 28 1.7 2.6 0.00 0.00 0.00 67
20260503221000 43 106 1.7 3.5 0.00 0.00 0.00 67
20260503220500 43 22 1.7 3.5 0.00 0.00 0.00 67
20260503220001 43 94 3.5 3.5 0.00 0.00 0.00 67
20260503215500 43 358 1.7 3.5 0.00 0.00 0.00 66
20260503215000 42 130 2.6 2.6 0.00 0.00 0.00 67
20260503214500 43 13 2.6 2.6 0.00 0.00 0.00 66
20260503214000 43 118 2.6 2.6 0.00 0.00 0.00 66
20260503213500 43 106 3.5 3.5 0.00 0.00 0.00 65
20260503213000 43 143 2.6 2.6 0.00 0.00 0.00 66
20260503212501 43 25 3.5 3.5 0.00 0.00 0.00 66
20260503212001 43 356 2.6 2.6 0.00 0.00 0.00 66
20260503211500 44 150 3.5 3.5 0.00 0.00 0.00 66
20260503211000 44 73 3.5 7.0 0.00 0.00 0.00 66
20260503210504 44 33 1.7 2.6 0.00 0.00 0.00 66
20260503210000 44 1 1.7 4.3 0.00 0.43 0.43 67
20260503205502 44 9 3.5 3.5 0.00 0.43 0.43 67
20260503205001 44 202 1.7 7.0 0.00 0.43 0.43 67
20260503204501 44 4 7.0 7.0 0.00 0.43 0.43 67
20260503204001 44 88 1.7 4.3 0.00 0.43 0.43 68
20260503203511 44 356 4.3 6.1 0.00 0.43 0.43 68
20260503203005 44 69 5.2 7.0 0.00 0.43 0.43 68
20260503202502 44 7 6.1 7.8 0.00 0.43 0.43 70
20260503202000 44 0 5.2 5.2 0.00 0.43 0.43 69
20260503201500 44 0 3.5 6.1 0.00 0.43 0.43 69
20260503201001 44 54 2.6 5.2 0.00 0.43 0.43 69
20260503200500 44 9 3.5 7.0 0.00 0.43 0.43 69
20260503200000 44 8 6.1 9.6 0.00 0.43 0.43 69
20260503195500 44 115 1.7 5.2 0.00 0.43 0.43 69
20260503195001 44 95 5.2 8.7 0.00 0.43 0.43 69
20260503194531 45 108 2.6 3.5 0.00 0.43 0.43 68
20260503194000 45 356 6.1 8.7 0.00 0.43 0.43 67
20260503193501 45 31 11.3 15.6 0.00 0.43 0.43 68
20260503193001 45 7 7.0 9.6 0.00 0.43 0.43 69
20260503192501 45 63 3.5 7.8 0.00 0.43 0.43 69
20260503192001 45 48 5.2 7.8 0.00 0.43 0.43 69
20260503191500 45 18 6.1 8.7 0.00 0.43 0.43 69
20260503191001 46 22 7.0 13.0 0.00 0.43 0.43 68
20260503190501 46 41 7.0 8.7 0.00 0.43 0.43 70
20260503190001 46 7 5.2 7.0 0.00 0.43 0.43 70
20260503185501 46 6 7.8 10.4 0.00 0.43 0.43 69
20260503185001 46 17 10.4 14.8 0.00 0.43 0.43 70
20260503184501 46 23 8.7 8.7 0.00 0.43 0.43 72
20260503184000 46 82 4.3 7.8 0.00 0.43 0.43 72
20260503183500 46 7 9.6 11.3 0.00 0.43 0.43 72
20260503183001 46 18 7.0 9.6 0.00 0.43 0.43 72
20260503182500 47 31 5.2 7.8 0.00 0.43 0.43 71
20260503182000 47 16 6.1 7.0 0.00 0.43 0.43 71
20260503181500 46 2 8.7 13.0 0.00 0.43 0.43 74
20260503180501 46 18 2.6 7.0 0.00 0.43 0.43 76
20260503180000 46 359 7.0 12.2 0.00 0.43 0.43 77
20260503175501 46 2 6.1 7.0 0.00 0.43 0.43 77
20260503175001 46 20 7.0 8.7 0.00 0.43 0.43 78
20260503174501 46 340 4.3 7.0 0.00 0.43 0.43 79
20260503174001 46 114 3.5 5.2 0.00 0.43 0.43 78
20260503173502 46 69 1.7 5.2 0.00 0.42 0.42 78
20260503173001 46 11 3.5 5.2 0.00 0.42 0.42 79
20260503172500 47 123 1.7 5.2 0.00 0.42 0.42 77
20260503172001 47 35 6.1 9.6 0.00 0.42 0.42 77
20260503171500 47 21 6.1 7.8 0.00 0.42 0.42 76
20260503171000 47 25 9.6 13.9 0.00 0.42 0.42 76
20260503170500 47 335 3.5 8.7 0.00 0.42 0.42 76
20260503151000 46 36 6.1 8.7 0.00 0.42 0.42 85
20260503150500 46 49 5.2 10.4 0.00 0.42 0.42 85
20260503131000 46 10 6.1 8.7 0.00 0.39 0.39 88
20260503130500 46 16 6.1 7.0 0.00 0.39 0.39 90
20260503110500 44 356 6.1 7.0 0.00 0.33 0.33 93
20260503090500 42 351 4.3 5.2 0.00 0.28 0.28 94
20260503081500 42 20 2.6 2.6 0.01 0.25 0.25 94
20260503081000 42 17 3.5 5.2 0.00 0.25 0.25 94
20260503080500 42 0 8.7 9.6 0.00 0.25 0.25 94
20260503072500 42 16 0.0 2.6 0.01 0.23 0.23 94
20260503072000 42 127 2.6 2.6 0.01 0.23 0.23 94
20260503071500 42 10 2.6 3.5 0.00 0.22 0.22 94
20260503071000 42 359 0.9 1.7 0.00 0.22 0.22 94
20260503070500 42 310 0.0 3.5 0.00 0.22 0.22 95
20260503055000 41 121 1.7 2.6 0.02 0.20 0.20 94
20260503054500 41 4 3.5 4.3 0.02 0.20 0.20 94
20260503054001 41 14 3.5 5.2 0.02 0.20 0.20 94
20260503053500 41 99 4.3 8.7 0.02 0.20 0.20 94
20260503053000 41 117 5.2 5.2 0.01 0.19 0.19 94
20260503052500 41 18 2.6 3.5 0.01 0.19 0.19 94